Tracking 25934 objects as of 10-Aug-2022
HD Live streaming from Space Station
objects crossing your sky now

NINGXIA-1 8

Track NINGXIA-1 8 now!
10-day predictions


NORAD ID: 49020
Int'l Code: 2021-064C
Perigee: 866.7 km
Apogee: 879.5 km
Inclination: 45.0 °
Period: 102.3 minutes
Semi major axis: 7244 km
RCS: Unknown
Launch date: July 9, 2021
Source: People's Republic of China (PRC)
Launch site: Taiyaun Space Center, China (TSC)
aabbcc
Your satellite tracking list
Your tracking list is empty




NASA's NSSDC Master Catalog

Two Line Element Set (TLE):
1 49020U 21064C   22222.35441932 -.00000128  00000-0  25455-5 0  9997
2 49020  44.9971  99.8636 0008835 350.2113   9.8552 14.08072225 55933
Source of the keplerian elements: AFSPC